Weather History for Atka, AK

Change the Weather History Date:

Friday, November 22, 2013

  Actual Average (PADK) Record (PADK)
Temperature  
Mean Temperature 30 °F -  
Max Temperature 35 °F 40 °F 55 °F (1970)
Min Temperature 24 °F 31 °F 16 °F (1972)
Degree Days  
Heating Degree Days 36    
Moisture  
Dew Point 19 °F    
Average Humidity 62    
Maximum Humidity 74    
Minimum Humidity 48    
Precipitation  
Precipitation 0.00 in - - ()
Sea Level Pressure  
Sea Level Pressure 29.70 in    
Wind  
Wind Speed 5 mph (NE)    
Max Wind Speed 20 mph    
Max Gust Speed 26 mph    
Visibility 10 miles    
Events      
Averages and records for this station are not official NWS values.
T = Trace of Precipitation, MM = Missing Value Source: NWS Daily Summary

Daily Weather History Graph

Daily Weather History Graph

Search for Another Location

Airport:

Trip Planner

Search our weather history database for the weather conditions in past years. The results will help you decide how hot, cold, wet, or windy it might be!

Date:

Astronomy

Nov. 22, 2013 Rise Set
Actual Time 9:10 AM HAST 5:35 PM HAST
Civil Twilight 8:31 AM HAST 6:14 PM HAST
Nautical Twilight 7:49 AM HAST 6:56 PM HAST
Astronomical Twilight 7:08 AM HAST 7:36 PM HAST
Moon 10:32 PM HAST (11/22) 12:51 PM HAST (11/22)
Length of Visible Light 9h 42m
Length of Day
8h 24m
Waning Gibbous, 76% of the Moon is Illuminated
Nov 22
Waning Gibbous
Nov 25
Last Quarter
Dec 2
New
Dec 9
First Quarter
Dec 16
Full

Hourly Weather History & Observations

Time (HAST) Temp. Windchill Dew Point Humidity Pressure Visibility Wind Dir Wind Speed Gust Speed Precip Events Conditions
12:16 AM 28.4 °F 21.2 °F 17.6 °F 64% 29.85 in 10.0 mi WNW 6.9 mph - N/A   Scattered Clouds
12:36 AM 28.4 °F 22.2 °F 17.6 °F 64% 29.84 in 10.0 mi WNW 5.8 mph - N/A   Clear
12:56 AM 28.4 °F 22.2 °F 19.4 °F 69% 29.84 in 10.0 mi WNW 5.8 mph - N/A   Partly Cloudy
1:16 AM 30.2 °F 23.4 °F 19.4 °F 64% 29.84 in 10.0 mi West 6.9 mph - N/A   Scattered Clouds
1:36 AM 28.4 °F 24.6 °F 19.4 °F 69% 29.84 in 10.0 mi NNW 3.5 mph - N/A   Mostly Cloudy
1:56 AM 28.4 °F - 17.6 °F 64% 29.83 in 10.0 mi Calm Calm - N/A   Partly Cloudy
2:16 AM 28.4 °F - 17.6 °F 64% 29.82 in 10.0 mi Calm Calm - N/A   Clear
2:36 AM 26.6 °F - 17.6 °F 69% 29.82 in 10.0 mi Calm Calm - N/A   Clear
2:56 AM 26.6 °F - 17.6 °F 69% 29.81 in 10.0 mi Calm Calm - N/A   Clear
3:16 AM 24.8 °F - 17.6 °F 74% 29.82 in 10.0 mi Calm Calm - N/A   Clear
3:36 AM 24.8 °F 20.5 °F 17.6 °F 74% 29.81 in 10.0 mi NW 3.5 mph - N/A   Clear
3:56 AM 26.6 °F - 17.6 °F 69% 29.81 in 10.0 mi Calm Calm - N/A   Clear
4:16 AM 24.8 °F 20.5 °F 17.6 °F 74% 29.81 in 10.0 mi NW 3.5 mph - N/A   Clear
4:36 AM 24.8 °F 19.1 °F 17.6 °F 74% 29.79 in 10.0 mi NNW 4.6 mph - N/A   Clear
4:56 AM 24.8 °F - 17.6 °F 74% 29.79 in 10.0 mi Calm Calm - N/A   Clear
5:16 AM 24.8 °F - 17.6 °F 74% 29.78 in 10.0 mi Calm Calm - N/A   Clear
5:36 AM 24.8 °F - 17.6 °F 74% 29.79 in 10.0 mi Calm Calm - N/A   Clear
5:56 AM 24.8 °F - 15.8 °F 69% 29.79 in 10.0 mi Calm Calm - N/A   Clear
6:16 AM 24.8 °F - 17.6 °F 74% 29.78 in 10.0 mi Calm Calm - N/A   Clear
6:36 AM 24.8 °F 16.9 °F 17.6 °F 74% 29.78 in 10.0 mi West 6.9 mph - N/A   Clear
6:56 AM 26.6 °F - 17.6 °F 69% 29.78 in 10.0 mi Calm Calm - N/A   Clear
7:16 AM 24.8 °F - 17.6 °F 74% 29.78 in 10.0 mi Calm Calm - N/A   Clear
7:36 AM 24.8 °F 10.7 °F 17.6 °F 74% 29.77 in 10.0 mi West 19.6 mph 26.5 mph N/A   Clear
7:56 AM 26.6 °F 16.8 °F 17.6 °F 69% 29.77 in 10.0 mi West 10.4 mph - N/A   Clear
8:16 AM 24.8 °F - 15.8 °F 69% 29.76 in 10.0 mi Calm Calm - N/A   Clear
8:36 AM 24.8 °F - 15.8 °F 69% 29.75 in 10.0 mi Calm Calm - N/A   Clear
8:56 AM 24.8 °F 20.5 °F 15.8 °F 69% 29.75 in 10.0 mi NNW 3.5 mph - N/A   Clear
9:16 AM 24.8 °F - 17.6 °F 74% 29.75 in 10.0 mi Calm Calm - N/A   Clear
9:36 AM 24.8 °F - 17.6 °F 74% 29.75 in 10.0 mi Calm Calm - N/A   Clear
9:56 AM 24.8 °F 20.5 °F 17.6 °F 74% 29.75 in 10.0 mi NW 3.5 mph - N/A   Mostly Cloudy
10:16 AM 26.6 °F 22.6 °F 17.6 °F 69% 29.75 in 10.0 mi NNW 3.5 mph - N/A   Overcast
10:36 AM 26.6 °F 21.2 °F 19.4 °F 74% 29.74 in 10.0 mi NNW 4.6 mph - N/A   Overcast
10:56 AM 28.4 °F - 21.2 °F 74% 29.73 in 10.0 mi Calm Calm - N/A   Mostly Cloudy
11:16 AM 30.2 °F - 21.2 °F 69% 29.72 in 10.0 mi Calm Calm - N/A   Partly Cloudy
11:36 AM 30.2 °F - 21.2 °F 69% 29.71 in 10.0 mi Calm Calm - N/A   Mostly Cloudy
11:56 AM 32.0 °F 23.6 °F 19.4 °F 60% 29.71 in 10.0 mi WSW 10.4 mph 25.3 mph N/A   Scattered Clouds
12:16 PM 33.8 °F - 21.2 °F 60% 29.71 in 10.0 mi Calm Calm - N/A   Clear
12:36 PM 33.8 °F 28.6 °F 21.2 °F 60% 29.70 in 10.0 mi SSE 5.8 mph - N/A   Mostly Cloudy
12:56 PM 33.8 °F 30.8 °F 21.2 °F 60% 29.69 in 10.0 mi South 3.5 mph - N/A   Mostly Cloudy
1:16 PM 35.6 °F 28.0 °F 21.2 °F 56% 29.68 in 10.0 mi East 10.4 mph - N/A   Mostly Cloudy
1:36 PM 35.6 °F 28.0 °F 19.4 °F 52% 29.67 in 10.0 mi East 10.4 mph - N/A   Mostly Cloudy
1:56 PM 35.6 °F 28.0 °F 19.4 °F 52% 29.67 in 10.0 mi East 10.4 mph - N/A   Mostly Cloudy
2:16 PM 35.6 °F 27.1 °F 21.2 °F 56% 29.66 in 10.0 mi ENE 12.7 mph - N/A   Overcast
2:36 PM 35.6 °F 27.5 °F 19.4 °F 52% 29.66 in 10.0 mi ENE 11.5 mph - N/A   Scattered Clouds
2:56 PM 35.6 °F 28.6 °F 19.4 °F 52% 29.65 in 10.0 mi ENE 9.2 mph - N/A   Scattered Clouds
3:16 PM 35.6 °F 29.9 °F 19.4 °F 52% 29.65 in 10.0 mi ENE 6.9 mph - N/A   Mostly Cloudy
3:36 PM 35.6 °F 28.0 °F 19.4 °F 52% 29.64 in 10.0 mi ENE 10.4 mph - N/A   Overcast
3:56 PM 35.6 °F 28.6 °F 19.4 °F 52% 29.64 in 10.0 mi ENE 9.2 mph - N/A   Overcast
4:16 PM 35.6 °F 28.6 °F 19.4 °F 52% 29.64 in 10.0 mi ENE 9.2 mph - N/A   Overcast
4:36 PM 35.6 °F 28.6 °F 17.6 °F 48% 29.63 in 10.0 mi ENE 9.2 mph - N/A   Overcast
4:56 PM 35.6 °F 27.5 °F 21.2 °F 56% 29.63 in 10.0 mi ENE 11.5 mph - N/A   Overcast
5:16 PM 33.8 °F 25.3 °F 19.4 °F 56% 29.62 in 10.0 mi ENE 11.5 mph - N/A   Overcast
5:36 PM 33.8 °F 26.4 °F 17.6 °F 52% 29.62 in 10.0 mi ENE 9.2 mph - N/A   Overcast
5:56 PM 33.8 °F 27.7 °F 17.6 °F 52% 29.62 in 10.0 mi ENE 6.9 mph - N/A   Mostly Cloudy
6:16 PM 33.8 °F 26.4 °F 17.6 °F 52% 29.61 in 10.0 mi ENE 9.2 mph - N/A   Scattered Clouds
6:36 PM 33.8 °F 27.7 °F 17.6 °F 52% 29.60 in 10.0 mi NE 6.9 mph - N/A   Partly Cloudy
6:56 PM 33.8 °F - 15.8 °F 48% 29.60 in 10.0 mi Calm Calm - N/A   Partly Cloudy
7:16 PM 33.8 °F 26.4 °F 17.6 °F 52% 29.60 in 10.0 mi ENE 9.2 mph - N/A   Scattered Clouds
7:36 PM 33.8 °F 25.3 °F 17.6 °F 52% 29.60 in 10.0 mi ENE 11.5 mph - N/A   Scattered Clouds
7:56 PM 33.8 °F 25.3 °F 19.4 °F 56% 29.59 in 10.0 mi ENE 11.5 mph - N/A   Partly Cloudy
8:16 PM 33.8 °F 25.3 °F 17.6 °F 52% 29.59 in 10.0 mi ENE 11.5 mph - N/A   Mostly Cloudy
8:36 PM 33.8 °F 24.8 °F 17.6 °F 52% 29.59 in 10.0 mi NE 12.7 mph - N/A   Mostly Cloudy
8:56 PM 33.8 °F 24.8 °F 17.6 °F 52% 29.59 in 10.0 mi ENE 12.7 mph 19.6 mph N/A   Overcast
9:16 PM 35.6 °F 28.0 °F 19.4 °F 52% 29.59 in 10.0 mi ENE 10.4 mph 17.3 mph N/A   Overcast
9:36 PM 35.6 °F 25.2 °F 19.4 °F 52% 29.59 in 10.0 mi ENE 18.4 mph 24.2 mph N/A   Overcast
9:56 PM 33.8 °F 23.9 °F 17.6 °F 52% 29.59 in 10.0 mi ENE 15.0 mph - N/A   Scattered Clouds
10:16 PM 35.6 °F 26.6 °F 19.4 °F 52% 29.59 in 10.0 mi ENE 13.8 mph 17.3 mph N/A   Mostly Cloudy
10:36 PM 33.8 °F 25.3 °F 21.2 °F 60% 29.59 in 10.0 mi ENE 11.5 mph 23.0 mph N/A   Overcast
10:56 PM 35.6 °F 26.6 °F 19.4 °F 52% 29.59 in 10.0 mi East 13.8 mph 23.0 mph N/A   Mostly Cloudy
11:16 PM 35.6 °F 28.6 °F 19.4 °F 52% 29.59 in 10.0 mi NE 9.2 mph 16.1 mph N/A   Mostly Cloudy
11:36 PM 35.6 °F 26.6 °F 19.4 °F 52% 29.59 in 10.0 mi East 13.8 mph 21.9 mph N/A   Mostly Cloudy
11:56 PM 33.8 °F 23.2 °F 23.0 °F 65% 29.58 in 10.0 mi ENE 17.3 mph 25.3 mph N/A   Overcast